Location: *
(46.1333°S, 161.2167°W)
Time: 02:54:47
(UTC+00:00)

Cosmos 1536 Rocket - Pass Details

Date: 15 July 2020
Orbit: 604 x 633 km, 82.5° (Epoch: 10 August)

Event Time Altitude Azimuth Distance (km) Brightness Sun altitude
Rises 16:36:58 0° 331° (NNW) 2,862 6.8 -17.6°
Reaches altitude 10° 16:39:19 10° 322° (NW) 1,966 5.9 -17.2°
Maximum altitude 16:43:20 36° 255° (WSW) 978 4.0 -16.5°
Drops below altitude 10° 16:47:26 10° 187° (S) 1,996 6.0 -15.8°
Sets 16:49:50 0° 178° (S) 2,912 6.9 -15.4°
